Regional Weather Roundup
Issued by NWS

Home | Current Version | Previous Version | Graphics & Text | Print | Product List | Glossary Off
Versions: 1 2 3 4 5 6 7 8 9 10 11 12 13 14 15 16 17 18 19 20 21 22 23 24 25 26 27 28 29 30 31 32 33 34 35 36 37 38 39 40 41 42 43 44 45 46 47 48 49 50

000
ASUS43 KTOP 082259
RWRKS

WEATHER ROUNDUP FOR KANSAS
NATIONAL WEATHER SERVICE GOODLAND KS
500 PM CST MON FEB 08 2016

NOTE:  "FAIR" INDICATES FEW OR NO CLOUDS BELOW 12,000 FEET WITH NO
SIGNIFICANT WEATHER AND/OR OBSTRUCTIONS TO VISIBILITY.

KSZ001>006-013>018-027>032-041>047-090000-
NORTHWEST KANSAS

CITY           SKY/WX    TMP DP  RH WIND       PRES   REMARKS
GOODLAND       CLOUDY    37  23  56 NW15      30.28S WCI  28
HAYS           MOSUNNY   37  12  35 NW20G29   30.27S WCI  27
HILL CITY      SUNNY     37  20  50 NW13      30.28S WCI  29
RUSSELL        MOSUNNY   38  20  48 NW21G30   30.25S WCI  28
$$

KSZ061>065-074>080-084>089-090000-
SOUTHWEST KANSAS

CITY           SKY/WX    TMP DP  RH WIND       PRES   REMARKS
DODGE CITY     CLOUDY    41   0  18 N25G36    30.31R
ELKHART          N/A     49  21  33 N10         N/A
GARDEN CITY    MOSUNNY   42  10  27 N20       30.31S
GREAT BEND     MOSUNNY   39  16  38 NW28G35   30.27S WCI  28
LIBERAL        SUNNY     48  12  23 N25       30.32S
$$

KSZ066>073-081>083-090>101-090000-
SOUTHEAST KANSAS

CITY           SKY/WX    TMP DP  RH WIND       PRES   REMARKS
CHANUTE        MOCLDY    40  12  32 NW25G39   30.14R WCI  29
COFFEYVILLE    CLEAR     42  12  29 NW33G40   30.16R
HUTCHINSON     SUNNY     42  13  30 NW30G39   30.22R
MEDICINE LODGE   N/A     43   9  24 N20G39    30.26R
NEWTON         CLEAR     39  12  33 N29G38    30.20S WCI  28
PARSONS        PTCLDY    41  12  30 NW30G39   30.15R
WICHITA INTL   PTSUNNY   43  12  28 NW29G38   30.22R
WICHITA JABRA  MOSUNNY   40  12  32 N29G37    30.20R WCI  29
WINFIELD       SUNNY     43  12  28 N26G37    30.21S
$$

KSZ007>012-019>026-033>040-048>060-102>105-090000-
NORTHEAST KANSAS

CITY           SKY/WX    TMP DP  RH WIND       PRES   REMARKS
CONCORDIA      CLEAR     37  17  44 NW21G33   30.19R WCI  26
EMPORIA        CLEAR     38  11  32 NW26G39   30.14R WCI  26
LAWRENCE       PTCLDY    34  16  47 NW24G35   30.12R WCI  21
MANHATTAN      CLEAR     39  16  39 N12G31    30.17S WCI  32
OLATHE IND     PTCLDY    33  14  45 NW31G44   30.10R WCI  19
OLATHE EXE     CLOUDY    33  16  49 NW18G29   30.08R WCI  22
SALINA         CLEAR     42  15  33 NW25G39   30.20S
TOPEKA BILLARD PTCLDY    37  14  38 NW20G31   30.13R WCI  27
TOPEKA FORBES  CLEAR     37  13  37 NW31G39   30.12R WCI  24
$$



USA.gov is the U.S. government's official web portal to all federal, state and local government web resources and services.